Regional Weather Roundup
Issued by NWS

Home | Current Version | Previous Version | Text Only | Print | Product List | Glossary Off
Versions: 1 2 3 4 5 6 7 8 9 10 11 12 13 14 15 16 17 18 19 20 21 22 23 24 25 26 27 28 29 30 31 32 33 34 35 36 37 38 39 40 41 42 43 44 45 46 47 48 49 50

000
ASUS43 KLSX 281010
RWRMO

WEATHER SUMMARY FOR MISSOURI
NATIONAL WEATHER SERVICE SPRINGFIELD MO
500 AM CDT THU APR 28 2016

NOTE: "FAIR" INDICATES FEW OR NO CLOUDS BELOW 12,000 FEET WITH NO
       SIGNIFICANT WEATHER AND/OR OBSTRUCTIONS TO VISIBILITY.
       CURRENT SKY AND/OR WEATHER CONDITIONS ARE NOT AVAILABLE FOR
       CHILLICOTHE AND FARMINGTON.

MOZ001>031-035>038-043-044-053-054-281100-
...NORTHERN AND WESTERN MISSOURI...

CITY           SKY/WX    TMP DP  RH WIND       PRES   REMARKS
KANSAS CTY INT CLOUDY    46  39  76 W12       29.75R
KANSAS C DTWN  PTCLDY    48  39  71 W8        29.76R
LEE`S SUMMIT   PTCLDY    47  39  74 W9        29.76R
ST JOSEPH      CLOUDY    48  43  82 W16       29.74R
CHILLICOTHE      N/A     50  32  50 CALM      29.74R
KIRKSVILLE     PTCLDY    50  45  83 SW8       29.73R

$$
MOZ066>068-077>081-088>096-101>105-281100-
...SOUTHWEST MISSOURI...

CITY           SKY/WX    TMP DP  RH WIND       PRES   REMARKS
SPRINGFIELD    CLEAR     52  43  71 W9        29.82R
JOPLIN         CLEAR     50  43  77 W8        29.86R

$$
MOZ032>034-039>042-045>050-055>058-069>072-281100-
...CENTRAL MISSOURI...

CITY           SKY/WX    TMP DP  RH WIND       PRES   REMARKS
COLUMBIA       CLEAR     51  49  92 SW8       29.76R
JEFFERSON CITY CLEAR     55  48  77 SW7       29.76R
ROLLA          CLEAR     50  48  93 SW8       29.77R
SEDALIA        CLEAR     52  41  66 W10G18    29.77R
WHITEMAN AFB   PTCLDY    48  42  77 W9        29.76R
WARRENSBURG    MOCLDY    46  39  76 SW10      29.76F
OSAGE BEACH    CLEAR     52  41  66 SW6       29.79R

$$
MOZ051-052-059>065-281100-
...EAST CENTRAL MISSOURI...

CITY           SKY/WX    TMP DP  RH WIND       PRES   REMARKS
ST LOUIS INTL  CLEAR     57  51  80 SW5       29.76S
SPIRIT OF STL  CLEAR     54  52  93 CALM      29.75S
ST CHARLES     CLEAR     55  53  93 CALM      29.75R

$$
MOZ072>076-082>087-097>100-106>115-281100-
...SOUTH CENTRAL AND SOUTHEAST MISSOURI...

CITY           SKY/WX    TMP DP  RH WIND       PRES   REMARKS
CAPE GIRARDEAU CLEAR     58  57  97 W6        29.78R
FARMINGTON     CLEAR     53  50  89 CALM      29.79R
POPLAR BLUFF   CLEAR     59  55  87 CALM      29.80R
WEST PLAINS    CLEAR     50  46  86 MISG      29.82R

$$




USA.gov is the U.S. government's official web portal to all federal, state and local government web resources and services.